Regional Weather Roundup
Issued by NWS

Home | Current Version | Previous Version | Graphics & Text | Print | Product List | Glossary On
Versions: 1 2 3 4 5 6 7 8 9 10 11 12 13 14 15 16 17 18 19 20 21 22 23 24 25 26 27 28 29 30 31 32 33 34 35 36 37 38 39 40 41 42 43 44 45 46 47 48 49 50
000
ASUS45 KTFX 181919
RWRMT
MONTANA HOURLY WEATHER ROUNDUP
NATIONAL WEATHER SERVICE GREAT FALLS MT
119 PM MDT FRI APR 18 2014

NOTE: "FAIR" INDICATES FEW OR NO CLOUDS BELOW 12000 FEET WITH NO
SIGNIFICANT WEATHER AND/OR OBSTRUCTIONS TO VISIBILITY.

* THESE STATIONS ARE NOT UNDER NWS QUALITY CONTROL. THEY DO NOT
   REPORT WEATHER SUCH AS PRECIPITATION OR FOG.

MTZ001>007-043-182000-
WEST OF THE DIVIDE
CITY           SKY/WX    TMP DP  RH WIND       PRES   REMARKS
KALISPELL      CLOUDY    45  25  45 W17G26    29.78S
MISSOULA       PTCLDY    52  23  32 W20G26    29.88R
BUTTE          LGT RAIN  45  27  49 W20G37    29.79R
MULLAN PASS    SNOW      25  23  92 SW12G23   29.85R VSB 1/2  WCI  14
* ESSEX        N/A       38  28  67 S3         N/A
* LINCOLN      N/A       39  23  53 SW10G25    N/A   WCI  32
* LOOKOUT PASS N/A       32  27  82 SE12G19    N/A   WCI  23
* PLAINS APT   PTCLDY    48  23  37 SW18G28   29.90R
* POLSON       N/A       49  26  41 SW6G16     N/A
* SEELEY LAKE  N/A       45  15  30 W7G18      N/A
* THOMP F APT  PTCLDY    40  40 100 S10        N/A   WCI  34
* YAAK HILL    N/A       46  30  54 S2G8       N/A
$$

MTZ008-052>055-182000-
SOUTHWEST MONTANA
CITY           SKY/WX    TMP DP  RH WIND       PRES   REMARKS
BOZEMAN        CLOUDY    52  37  57 VRB5      29.75F
DILLON         PTCLDY    57  18  22 W31G44    29.76F
W YELLOWSTONE  N/A       38  36  93 SW6G18     N/A   WCI  33
* THREE FORKS  PTSUNNY   55  48  77 S8         N/A
* BOULDER HILL N/A       44  26  49 S10G16     N/A
* MONIDA PASS  N/A       43  39  86 SE12G18    N/A
* RAYNOLDS PAS N/A       40  24  53 SE17G22    N/A   WCI  31
* WHITEHALL    N/A       58  39  49 SW15G21    N/A
* WISE RIVER   N/A       49  28  44 W19G32     N/A
$$

MTZ009>010-012-014-046-048-049-054-182000-
EAST SLOPES AND CENTRAL MONTANA
CITY           SKY/WX    TMP DP  RH WIND       PRES   REMARKS
CUT BANK       SUNNY     48  21  34 SW32G46   29.66S
GREAT FALLS    PTSUNNY   54  25  33 W30G39    29.68S
HELENA         CLOUDY    45  28  51 W28G40    29.78R
MALMSTROM AFB  CLOUDY    54  21  27 W23G32    29.66S
* CONRAD       PTCLDY    54   5  14 SW28G33    N/A
* DEARBORN     N/A       49  23  36 SW21G32    N/A
* EAST GLACIER N/A       37  24  59 W24G34     N/A   WCI  26
* MONARCH      N/A       47  20  34 SW19G29    N/A
* PENDROY      N/A       48  10  21 W22G38     N/A
* ROGERS PASS  N/A       36  15  42 E7G24      N/A   WCI  30
* SAINT MARY   N/A       36  21  54 SW9G20     N/A   WCI  29
* SWEET GRASS  N/A       50  19  29 SW26G36    N/A
* WHITE SULPH  N/A       50  33  52 SW5G16     N/A
$$

MTZ011-013-016-021-035-040-045-047-050-051-182000-
NORTH CENTRAL MONTANA
CITY           SKY/WX    TMP DP  RH WIND       PRES   REMARKS
HAVRE          CLOUDY    55  36  49 W13       29.63S
LEWISTOWN      CLOUDY    52  34  50 W13       29.68S
* CHINOOK      CLOUDY    55  37  51 SW15G20   29.63F
* FORT BENTON  PTCLDY    59  25  27 SW21G30   29.65F
* MALTA APT    CLOUDY    54  37  53 CALM      29.62F
* CHESTER      N/A       54  19  25 W23G40     N/A
* DENTON       N/A       55  29  37 W20G27     N/A
* GEYSER       N/A       50  25  38 W24G34     N/A
* JUDITH GAP   N/A       51  33  50 N/A        N/A
* LOMA         N/A       59  25  27 SW27G38    N/A
$$

MTZ017>020-022>027-061-062-182000-
NORTHEAST MONTANA
CITY           SKY/WX    TMP DP  RH WIND       PRES   REMARKS
GLASGOW        CLOUDY    48  32  54 SE6       29.65R
GLENDIVE       PTSUNNY   64  36  35 SE16G24   29.63F
JORDAN         CLOUDY    54  43  67 W22G28    29.66R
SIDNEY         PTSUNNY   61  36  39 SE21      29.66F
WOLF POINT     CLOUDY    55  32  42 E12       29.64F
* BEAVER HILL  N/A       58  34  41 E32G38     N/A
* CIRCLE       N/A       58  38  47 S8         N/A
* LINDSAY DVD  N/A       60  35  39 SE22G29    N/A
* NAVAJO       N/A       44  31  60 SE20G26    N/A
* SACO         N/A       47  39  74 E9         N/A
* SCOBEY APT   CLOUDY    48  30  50 SE18G26   29.67S
$$

MTZ028>042-056>058-182000-
SOUTHCENTRAL AND SOUTHEAST MONTANA
CITY           SKY/WX    TMP DP  RH WIND       PRES   REMARKS
BAKER          PTSUNNY   63  37  38 SE26G40   29.65F
BILLINGS       LGT RAIN  54  37  53 NW17      29.73R
LIVINGSTON     CLOUDY    52  39  61 SW17      29.74F
MILES CITY     CLOUDY    61  39  44 CALM      29.61F
* EKALAKA APT  PTSUNNY   63  34  34 E20G28    29.66F
* LAUREL APT   CLOUDY    52  36  55 W13G18     N/A
* ROUNDUP APT  CLOUDY    48  39  71 N/A        N/A
* ALZADA       N/A       59  39  48 E12        N/A
* HYSHAM       N/A       56  33  42 W20G29     N/A
* LAME DEER    N/A       63  37  38 SW9G17     N/A
* REED POINT   N/A       50  38  64 W10        N/A
* ROSCOE HILL  N/A       51  30  45 E4         N/A
$$

REGIONAL REPORTS...DAKOTAS
CITY           SKY/WX    TMP DP  RH WIND       PRES   REMARKS
WILLISTON      CLOUDY    52  30  43 SE21G31   29.73F
DICKINSON      CLOUDY    54  32  43 SE26G36   29.71F
CROSBY         PTSUNNY   45  28  51 SE26G35   29.79F
TIOGA          PTCLDY    48  27  44 SE23G31   29.82F
WATFORD CITY   SUNNY     55  32  42 SE25G35   29.70F
BISMARCK       PTCLDY    57  34  42 SE24G33   29.88F
GRAND FORKS    CLOUDY    50  25  38 SE24G29   30.16F
FARGO          PTSUNNY   52  30  43 SE21G31   30.15F
BUFFALO SD     PTSUNNY   63  37  38 SE24      29.62F
RAPID CITY     PTSUNNY   75  36  24 S24G32    29.69F
$$

REGIONAL REPORTS...WYOMING/IDAHO/WASHINGTON
CITY           SKY/WX    TMP DP  RH WIND       PRES   REMARKS
GILLETTE       CLOUDY    70  32  25 SW28G43   29.67F
SHERIDAN       PTSUNNY   70  39  32 N12G20    29.63F
CODY           PTSUNNY   63  37  38 SW25G37   29.73F
YELLOWSTONE LA CLOUDY    36  34  92 VRB6      29.92R WCI  31
SALMON         PTSUNNY   55  21  27 W12G21    29.83R
MULLAN PASS    SNOW      25  23  92 SW12G23   29.85S VSB 1/2  WCI  14
SAND POINT     CLOUDY    46  30  54 SW15G23   29.89R
SPOKANE        PTSUNNY   46  28  50 SW28G33   29.93R
$$

REGIONAL REPORTS...ALBERTA
CITY           SKY/WX    TMP DP  RH WIND       PRES   REMARKS
CALGARY        LGT SNOW  34  32  92 N12       29.59S WCI  25
LETHBRIDGE     PTSUNNY   52  25  35 SW31G41   29.57S
MEDICINE HAT   LGT RAIN  54  41  62 W16G24    29.57S
EDMONTON       FOG       32  28  85 N14       29.69R WCI  22
WATERTON GATE  N/A       41  30  65 SW29G45    N/A
CARDSTON       N/A       45  27  49 SW15G23    N/A
MILK RIVER     N/A       50  23  35 SW30G40    N/A
$$

REGIONAL REPORTS...SASKATCHEWAN
CITY           SKY/WX    TMP DP  RH WIND       PRES   REMARKS
SWIFT CURRENT  LGT RAIN  41  39  93 SE17G23   29.60F
REGINA         LGT RAIN  34  30  85 SE29G38   29.78F WCI  20
VAL MARIE      N/A       48  34  59 S12        N/A
ASSINIBOIA     N/A       37  32  82 SE13G18    N/A   WCI  29
CORONACH       N/A       45  32  60 SE21G26    N/A

$$




USA.gov is the U.S. government's official web portal to all federal, state and local government web resources and services.